Time,TemperatureF,DewpointF,PressureIn,WindDirection,WindDirectionDegrees,WindSpeedMPH,WindSpeedGustMPH,Humidity,HourlyPrecipIn,Conditions,Clouds,dailyrainin,SoftwareType,DateUTC
2013-06-17 00:00:00,81.6,76.3,30.09,ENE,65,0.0,1.0,84,0.00,,,0.00,Wunderground v.1.15,2013-06-17 04:00:00,
2013-06-17 00:01:00,81.6,76.3,30.09,ESE,115,0.0,1.0,84,0.00,,,0.00,Wunderground v.1.15,2013-06-17 04:01:00,
2013-06-17 00:02:00,81.6,76.3,30.09,ESE,115,1.0,1.0,84,0.00,,,0.00,Wunderground v.1.15,2013-06-17 04:02:00,
2013-06-17 00:03:00,81.6,76.3,30.09,SSE,168,1.0,3.0,84,0.00,,,0.00,Wunderground v.1.15,2013-06-17 04:03:00,
2013-06-17 00:04:00,81.5,76.2,30.09,NNE,15,1.0,3.0,84,0.00,,,0.00,Wunderground v.1.15,2013-06-17 04:04:00,
2013-06-17 00:09:00,81.1,75.8,30.09,SE,134,1.0,3.0,84,0.00,,,0.00,Wunderground v.1.15,2013-06-17 04:09:00,
2013-06-17 00:14:00,80.7,75.8,30.09,SSE,152,0.0,1.0,85,0.00,,,0.00,Wunderground v.1.15,2013-06-17 04:14:00,
2013-06-17 00:19:00,80.5,75.6,30.08,East,97,0.0,1.0,85,0.00,,,0.00,Wunderground v.1.15,2013-06-17 04:19:00,
2013-06-17 00:24:00,80.2,75.3,30.08,East,97,0.0,0.0,85,0.00,,,0.00,Wunderground v.1.15,2013-06-17 04:24:00,
2013-06-17 00:29:00,80.1,75.2,30.08,East,98,0.0,0.0,85,0.00,,,0.00,Wunderground v.1.15,2013-06-17 04:29:00,
2013-06-17 00:34:00,80.0,75.4,30.08,East,99,0.0,0.0,86,0.00,,,0.00,Wunderground v.1.15,2013-06-17 04:34:00,
2013-06-17 00:39:00,79.8,75.2,30.08,South,190,0.0,0.0,86,0.00,,,0.00,Wunderground v.1.15,2013-06-17 04:39:00,
2013-06-17 00:44:00,79.7,75.1,30.08,South,189,0.0,0.0,86,0.00,,,0.00,Wunderground v.1.15,2013-06-17 04:44:00,
2013-06-17 00:49:00,79.6,75.0,30.08,ESE,103,0.0,0.0,86,0.00,,,0.00,Wunderground v.1.15,2013-06-17 04:49:00,
2013-06-17 00:54:00,79.5,74.9,30.08,SSW,194,0.0,0.0,86,0.00,,,0.00,Wunderground v.1.15,2013-06-17 04:54:00,
2013-06-17 00:59:00,79.4,74.8,30.08,SW,215,0.0,1.0,86,0.00,,,0.00,Wunderground v.1.15,2013-06-17 04:59:00,
2013-06-17 01:05:00,79.4,74.8,30.08,East,81,0.0,1.0,86,0.00,,,0.00,Wunderground v.1.15,2013-06-17 05:05:00,
2013-06-17 01:10:00,79.5,74.9,30.08,South,183,0.0,0.0,86,0.00,,,0.00,Wunderground v.1.15,2013-06-17 05:10:00,
2013-06-17 01:15:00,79.5,74.9,30.08,SSE,155,0.0,0.0,86,0.00,,,0.00,Wunderground v.1.15,2013-06-17 05:15:00,
2013-06-17 01:20:00,79.5,74.9,30.08,SW,224,0.0,0.0,86,0.00,,,0.00,Wunderground v.1.15,2013-06-17 05:20:00,
2013-06-17 01:25:00,79.5,74.9,30.09,SSE,160,0.0,1.0,86,0.00,,,0.00,Wunderground v.1.15,2013-06-17 05:25:00,
2013-06-17 01:31:00,79.6,75.0,30.08,SSE,162,0.0,0.0,86,0.00,,,0.00,Wunderground v.1.15,2013-06-17 05:31:00,
2013-06-17 01:36:00,79.7,75.1,30.08,SSE,162,0.0,0.0,86,0.00,,,0.00,Wunderground v.1.15,2013-06-17 05:36:00,
2013-06-17 01:41:00,79.8,75.2,30.08,SSE,155,0.0,0.0,86,0.00,,,0.00,Wunderground v.1.15,2013-06-17 05:41:00,
2013-06-17 01:46:00,79.9,75.0,30.08,SSE,157,0.0,0.0,85,0.00,,,0.00,Wunderground v.1.15,2013-06-17 05:46:00,
2013-06-17 01:52:00,79.8,74.9,30.07,SSE,156,0.0,0.0,85,0.00,,,0.00,Wunderground v.1.15,2013-06-17 05:52:00,
2013-06-17 01:57:00,79.7,75.1,30.07,SSE,157,0.0,0.0,86,0.00,,,0.00,Wunderground v.1.15,2013-06-17 05:57:00,
2013-06-17 02:03:00,79.6,75.0,30.06,SSE,156,0.0,0.0,86,0.00,,,0.00,Wunderground v.1.15,2013-06-17 06:03:00,
2013-06-17 02:08:00,79.4,74.8,30.06,SSE,156,0.0,0.0,86,0.00,,,0.00,Wunderground v.1.15,2013-06-17 06:08:00,
2013-06-17 02:13:00,79.4,74.8,30.06,SSE,157,0.0,0.0,86,0.00,,,0.00,Wunderground v.1.15,2013-06-17 06:13:00,
2013-06-17 02:18:00,79.2,75.0,30.06,SSE,157,0.0,0.0,87,0.00,,,0.00,Wunderground v.1.15,2013-06-17 06:18:00,
2013-06-17 02:23:00,79.1,74.9,30.06,SSE,156,0.0,0.0,87,0.00,,,0.00,Wunderground v.1.15,2013-06-17 06:23:00,
2013-06-17 02:28:00,78.9,74.7,30.05,SSE,157,0.0,0.0,87,0.00,,,0.00,Wunderground v.1.15,2013-06-17 06:28:00,
2013-06-17 02:33:00,78.8,74.9,30.05,SSE,157,0.0,0.0,88,0.00,,,0.00,Wunderground v.1.15,2013-06-17 06:33:00,
2013-06-17 02:38:00,78.7,74.8,30.05,SSE,156,0.0,0.0,88,0.00,,,0.00,Wunderground v.1.15,2013-06-17 06:38:00,
2013-06-17 02:43:00,78.5,74.6,30.04,SSE,157,0.0,0.0,88,0.00,,,0.00,Wunderground v.1.15,2013-06-17 06:43:00,
2013-06-17 02:48:00,78.3,74.5,30.04,SSE,156,0.0,0.0,88,0.00,,,0.00,Wunderground v.1.15,2013-06-17 06:48:00,
2013-06-17 02:53:00,78.2,74.7,30.04,SSE,157,0.0,0.0,89,0.00,,,0.00,Wunderground v.1.15,2013-06-17 06:53:00,
2013-06-17 02:58:00,78.1,74.6,30.04,SSE,156,0.0,0.0,89,0.00,,,0.00,Wunderground v.1.15,2013-06-17 06:58:00,
2013-06-17 03:04:00,78.0,74.5,30.04,SSE,156,0.0,0.0,89,0.00,,,0.00,Wunderground v.1.15,2013-06-17 07:04:00,
2013-06-17 03:09:00,78.1,74.9,30.03,SSE,157,0.0,0.0,90,0.00,,,0.00,Wunderground v.1.15,2013-06-17 07:09:00,
2013-06-17 03:14:00,78.0,74.8,30.03,SSE,157,0.0,0.0,90,0.00,,,0.00,Wunderground v.1.15,2013-06-17 07:14:00,
2013-06-17 03:19:00,78.0,74.8,30.03,SSE,156,0.0,0.0,90,0.00,,,0.00,Wunderground v.1.15,2013-06-17 07:19:00,
2013-06-17 03:24:00,78.0,74.8,30.03,SSE,156,0.0,0.0,90,0.00,,,0.00,Wunderground v.1.15,2013-06-17 07:24:00,
2013-06-17 03:29:00,78.0,74.8,30.03,SSE,156,0.0,0.0,90,0.00,,,0.00,Wunderground v.1.15,2013-06-17 07:29:00,
2013-06-17 03:34:00,78.0,74.8,30.03,SSE,157,0.0,0.0,90,0.00,,,0.00,Wunderground v.1.15,2013-06-17 07:34:00,
2013-06-17 03:39:00,77.9,74.7,30.03,SSE,156,0.0,0.0,90,0.00,,,0.00,Wunderground v.1.15,2013-06-17 07:39:00,
2013-06-17 03:44:00,77.9,74.7,30.03,SSE,156,0.0,0.0,90,0.00,,,0.00,Wunderground v.1.15,2013-06-17 07:44:00,
2013-06-17 03:49:00,77.9,74.7,30.03,SSE,156,0.0,0.0,90,0.00,,,0.00,Wunderground v.1.15,2013-06-17 07:49:00,
2013-06-17 03:54:00,77.9,75.1,30.03,SSE,156,0.0,0.0,91,0.00,,,0.00,Wunderground v.1.15,2013-06-17 07:54:00,
2013-06-17 04:00:00,77.8,74.6,30.03,SSE,156,0.0,0.0,90,0.00,,,0.00,Wunderground v.1.15,2013-06-17 08:00:00,
2013-06-17 04:06:00,77.7,74.5,30.03,SSE,156,0.0,0.0,90,0.00,,,0.00,Wunderground v.1.15,2013-06-17 08:06:00,
2013-06-17 04:11:00,77.8,75.0,30.03,SSE,156,0.0,0.0,91,0.00,,,0.00,Wunderground v.1.15,2013-06-17 08:11:00,
2013-06-17 04:17:00,77.9,75.1,30.03,SSE,156,0.0,0.0,91,0.00,,,0.00,Wunderground v.1.15,2013-06-17 08:17:00,
2013-06-17 04:22:00,78.0,75.2,30.03,SSE,157,0.0,0.0,91,0.00,,,0.00,Wunderground v.1.15,2013-06-17 08:22:00,
2013-06-17 04:27:00,78.2,75.4,30.03,SSE,160,0.0,2.0,91,0.00,,,0.00,Wunderground v.1.15,2013-06-17 08:27:00,
2013-06-17 04:32:00,78.4,75.2,30.03,SSE,150,0.0,3.0,90,0.00,,,0.00,Wunderground v.1.15,2013-06-17 08:32:00,
2013-06-17 04:38:00,78.5,75.3,30.04,South,173,1.0,3.0,90,0.00,,,0.00,Wunderground v.1.15,2013-06-17 08:38:00,
2013-06-17 04:43:00,78.6,75.4,30.04,SE,126,1.0,1.0,90,0.00,,,0.00,Wunderground v.1.15,2013-06-17 08:43:00,
2013-06-17 04:48:00,78.7,75.2,30.04,SSE,150,0.0,1.0,89,0.00,,,0.00,Wunderground v.1.15,2013-06-17 08:48:00,
2013-06-17 04:53:00,78.9,75.4,30.04,SW,214,1.0,2.0,89,0.00,,,0.00,Wunderground v.1.15,2013-06-17 08:53:00,
2013-06-17 04:59:00,79.0,75.5,30.04,SE,129,0.0,2.0,89,0.00,,,0.00,Wunderground v.1.15,2013-06-17 08:59:00,
2013-06-17 05:05:00,79.2,75.3,30.04,SW,219,0.0,1.0,88,0.00,,,0.00,Wunderground v.1.15,2013-06-17 09:05:00,
2013-06-17 05:10:00,79.3,75.4,30.04,SW,219,0.0,0.0,88,0.00,,,0.00,Wunderground v.1.15,2013-06-17 09:10:00,
2013-06-17 05:15:00,79.3,75.4,30.04,SW,219,0.0,0.0,88,0.00,,,0.00,Wunderground v.1.15,2013-06-17 09:15:00,
2013-06-17 05:20:00,79.3,75.4,30.04,SSW,212,0.0,0.0,88,0.00,,,0.00,Wunderground v.1.15,2013-06-17 09:20:00,
2013-06-17 05:25:00,79.4,75.5,30.04,SSW,212,0.0,0.0,88,0.00,,,0.00,Wunderground v.1.15,2013-06-17 09:25:00,
2013-06-17 05:30:00,79.4,75.5,30.04,SSE,161,0.0,0.0,88,0.00,,,0.00,Wunderground v.1.15,2013-06-17 09:30:00,
2013-06-17 05:35:00,79.5,75.6,30.05,SSE,164,0.0,0.0,88,0.00,,,0.00,Wunderground v.1.15,2013-06-17 09:35:00,
2013-06-17 05:40:00,79.6,75.4,30.05,NE,34,0.0,1.0,87,0.00,,,0.00,Wunderground v.1.15,2013-06-17 09:40:00,
2013-06-17 05:45:00,79.7,75.5,30.05,NE,34,0.0,1.0,87,0.00,,,0.00,Wunderground v.1.15,2013-06-17 09:45:00,
2013-06-17 05:51:00,79.7,75.5,30.05,NE,36,0.0,0.0,87,0.00,,,0.00,Wunderground v.1.15,2013-06-17 09:51:00,
2013-06-17 05:56:00,79.7,75.5,30.05,NE,36,0.0,0.0,87,0.00,,,0.00,Wunderground v.1.15,2013-06-17 09:56:00,
2013-06-17 06:01:00,79.6,75.7,30.05,NE,54,0.0,0.0,88,0.00,,,0.00,Wunderground v.1.15,2013-06-17 10:01:00,
2013-06-17 06:07:00,79.4,75.5,30.05,NE,54,0.0,0.0,88,0.00,,,0.00,Wunderground v.1.15,2013-06-17 10:07:00,
2013-06-17 06:12:00,79.3,75.4,30.06,NE,54,0.0,0.0,88,0.00,,,0.00,Wunderground v.1.15,2013-06-17 10:12:00,
2013-06-17 06:17:00,79.2,75.3,30.06,NE,54,0.0,0.0,88,0.00,,,0.00,Wunderground v.1.15,2013-06-17 10:17:00,
2013-06-17 06:22:00,79.2,75.7,30.06,NE,54,0.0,0.0,89,0.00,,,0.00,Wunderground v.1.15,2013-06-17 10:22:00,
2013-06-17 06:28:00,79.0,75.5,30.06,NE,54,0.0,0.0,89,0.00,,,0.00,Wunderground v.1.15,2013-06-17 10:28:00,
2013-06-17 06:33:00,78.9,75.4,30.06,ESE,119,0.0,0.0,89,0.00,,,0.00,Wunderground v.1.15,2013-06-17 10:33:00,
2013-06-17 06:38:00,78.9,75.4,30.06,ESE,119,0.0,0.0,89,0.00,,,0.00,Wunderground v.1.15,2013-06-17 10:38:00,
2013-06-17 06:43:00,78.9,75.4,30.06,ESE,119,0.0,0.0,89,0.00,,,0.00,Wunderground v.1.15,2013-06-17 10:43:00,
2013-06-17 06:48:00,78.8,75.3,30.06,SSW,204,0.0,1.0,89,0.00,,,0.00,Wunderground v.1.15,2013-06-17 10:48:00,
2013-06-17 06:53:00,78.8,75.3,30.06,SSW,205,0.0,0.0,89,0.00,,,0.00,Wunderground v.1.15,2013-06-17 10:53:00,
2013-06-17 06:58:00,78.8,75.6,30.06,SSW,204,0.0,0.0,90,0.00,,,0.00,Wunderground v.1.15,2013-06-17 10:58:00,
2013-06-17 07:04:00,78.9,75.7,30.06,SSW,204,0.0,0.0,90,0.00,,,0.00,Wunderground v.1.15,2013-06-17 11:04:00,
2013-06-17 07:10:00,78.9,75.7,30.05,SSW,205,0.0,0.0,90,0.00,,,0.00,Wunderground v.1.15,2013-06-17 11:10:00,
2013-06-17 07:15:00,78.9,75.7,30.05,SSW,204,0.0,0.0,90,0.00,,,0.00,Wunderground v.1.15,2013-06-17 11:15:00,
2013-06-17 07:20:00,79.0,75.8,30.05,SSW,204,0.0,0.0,90,0.00,,,0.00,Wunderground v.1.15,2013-06-17 11:20:00,
2013-06-17 07:25:00,79.1,75.9,30.05,SSW,204,0.0,0.0,90,0.00,,,0.00,Wunderground v.1.15,2013-06-17 11:25:00,
2013-06-17 07:30:00,79.3,76.1,30.05,SSW,204,0.0,0.0,90,0.00,,,0.00,Wunderground v.1.15,2013-06-17 11:30:00,
2013-06-17 07:35:00,79.5,76.3,30.05,SSW,204,0.0,0.0,90,0.00,,,0.00,Wunderground v.1.15,2013-06-17 11:35:00,
2013-06-17 07:41:00,79.7,76.2,30.05,SSW,204,0.0,0.0,89,0.00,,,0.00,Wunderground v.1.15,2013-06-17 11:41:00,
2013-06-17 07:46:00,80.0,76.5,30.06,SSW,205,0.0,0.0,89,0.00,,,0.00,Wunderground v.1.15,2013-06-17 11:46:00,
2013-06-17 07:52:00,80.5,76.6,30.06,SSW,205,0.0,0.0,88,0.00,,,0.00,Wunderground v.1.15,2013-06-17 11:52:00,
2013-06-17 07:57:00,80.9,76.3,30.06,SSW,197,0.0,1.0,86,0.00,,,0.00,Wunderground v.1.15,2013-06-17 11:57:00,
2013-06-17 08:03:00,81.6,77.0,30.06,SSW,197,0.0,0.0,86,0.00,,,0.00,Wunderground v.1.15,2013-06-17 12:03:00,
2013-06-17 08:08:00,82.0,76.7,30.06,SSW,197,0.0,0.0,84,0.00,,,0.00,Wunderground v.1.15,2013-06-17 12:08:00,
2013-06-17 08:13:00,82.3,76.6,30.06,SSW,193,0.0,0.0,83,0.00,,,0.00,Wunderground v.1.15,2013-06-17 12:13:00,
2013-06-17 08:19:00,82.7,77.0,30.07,South,183,0.0,0.0,83,0.00,,,0.00,Wunderground v.1.15,2013-06-17 12:19:00,
2013-06-17 08:24:00,83.2,77.1,30.07,South,186,0.0,0.0,82,0.00,,,0.00,Wunderground v.1.15,2013-06-17 12:24:00,
2013-06-17 08:29:00,83.6,76.8,30.07,South,187,0.0,1.0,80,0.00,,,0.00,Wunderground v.1.15,2013-06-17 12:29:00,
2013-06-17 08:34:00,84.0,77.2,30.07,South,177,0.0,0.0,80,0.00,,,0.00,Wunderground v.1.15,2013-06-17 12:34:00,
2013-06-17 08:39:00,84.4,76.8,30.07,South,177,0.0,0.0,78,0.00,,,0.00,Wunderground v.1.15,2013-06-17 12:39:00,
2013-06-17 08:44:00,84.6,76.6,30.07,SSW,211,0.0,0.0,77,0.00,,,0.00,Wunderground v.1.15,2013-06-17 12:44:00,
2013-06-17 08:49:00,84.6,76.6,30.07,SSE,153,0.0,1.0,77,0.00,,,0.00,Wunderground v.1.15,2013-06-17 12:49:00,
2013-06-17 08:54:00,84.9,76.5,30.07,SSE,163,0.0,0.0,76,0.00,,,0.00,Wunderground v.1.15,2013-06-17 12:54:00,
2013-06-17 08:59:00,84.9,76.1,30.07,SSE,159,0.0,2.0,75,0.00,,,0.00,Wunderground v.1.15,2013-06-17 12:59:00,
2013-06-17 09:05:00,84.9,75.7,30.07,SE,135,0.0,1.0,74,0.00,,,0.00,Wunderground v.1.15,2013-06-17 13:05:00,
2013-06-17 09:10:00,85.2,76.4,30.07,SSE,162,0.0,0.0,75,0.00,,,0.00,Wunderground v.1.15,2013-06-17 13:10:00,
2013-06-17 09:15:00,85.7,75.6,30.07,SSE,160,0.0,0.0,72,0.00,,,0.00,Wunderground v.1.15,2013-06-17 13:15:00,
2013-06-17 09:21:00,86.1,75.6,30.07,SSW,197,0.0,2.0,71,0.00,,,0.00,Wunderground v.1.15,2013-06-17 13:21:00,
2013-06-17 09:27:00,86.6,75.2,30.07,SSW,198,0.0,2.0,69,0.00,,,0.00,Wunderground v.1.15,2013-06-17 13:27:00,
2013-06-17 09:32:00,87.2,75.8,30.07,South,183,0.0,1.0,69,0.00,,,0.00,Wunderground v.1.15,2013-06-17 13:32:00,
2013-06-17 09:37:00,87.9,76.5,30.07,SE,141,0.0,1.0,69,0.00,,,0.00,Wunderground v.1.15,2013-06-17 13:37:00,
2013-06-17 09:42:00,87.8,75.9,30.07,West,264,0.0,0.0,68,0.00,,,0.00,Wunderground v.1.15,2013-06-17 13:42:00,
2013-06-17 09:48:00,88.0,76.1,30.07,WSW,238,0.0,2.0,68,0.00,,,0.00,Wunderground v.1.15,2013-06-17 13:48:00,
2013-06-17 09:53:00,88.1,75.3,30.07,SSE,152,0.0,2.0,66,0.00,,,0.00,Wunderground v.1.15,2013-06-17 13:53:00,
2013-06-17 09:58:00,88.4,75.6,30.07,ENE,74,1.0,3.0,66,0.00,,,0.00,Wunderground v.1.15,2013-06-17 13:58:00,
2013-06-17 10:04:00,88.8,76.0,30.07,WSW,248,1.0,1.0,66,0.00,,,0.00,Wunderground v.1.15,2013-06-17 14:04:00,
2013-06-17 10:09:00,89.2,76.4,30.07,SSW,201,0.0,1.0,66,0.00,,,0.00,Wunderground v.1.15,2013-06-17 14:09:00,
2013-06-17 10:14:00,89.5,75.7,30.07,SSE,155,0.0,2.0,64,0.00,,,0.00,Wunderground v.1.15,2013-06-17 14:14:00,
2013-06-17 10:20:00,89.5,76.2,30.07,WNW,293,0.0,0.0,65,0.00,,,0.00,Wunderground v.1.15,2013-06-17 14:20:00,
2013-06-17 10:25:00,88.8,75.0,30.07,SSW,210,0.0,0.0,64,0.00,,,0.00,Wunderground v.1.15,2013-06-17 14:25:00,
2013-06-17 10:30:00,88.1,74.8,30.07,South,180,0.0,2.0,65,0.00,,,0.00,Wunderground v.1.15,2013-06-17 14:30:00,
2013-06-17 10:35:00,87.6,74.8,30.07,SW,221,0.0,2.0,66,0.00,,,0.00,Wunderground v.1.15,2013-06-17 14:35:00,
2013-06-17 10:40:00,87.3,74.5,30.07,SSE,155,0.0,0.0,66,0.00,,,0.00,Wunderground v.1.15,2013-06-17 14:40:00,
2013-06-17 10:45:00,87.5,73.8,30.07,SSE,156,0.0,0.0,64,0.00,,,0.00,Wunderground v.1.15,2013-06-17 14:45:00,
2013-06-17 10:51:00,88.7,75.4,30.07,SSE,156,0.0,0.0,65,0.00,,,0.00,Wunderground v.1.15,2013-06-17 14:51:00,
2013-06-17 10:56:00,89.4,75.6,30.07,NW,307,0.0,1.0,64,0.00,,,0.00,Wunderground v.1.15,2013-06-17 14:56:00,
2013-06-17 11:01:00,89.7,74.9,30.07,SW,215,0.0,0.0,62,0.00,,,0.00,Wunderground v.1.15,2013-06-17 15:01:00,
2013-06-17 11:06:00,89.4,74.2,30.07,SSE,152,0.0,1.0,61,0.00,,,0.00,Wunderground v.1.15,2013-06-17 15:06:00,
2013-06-17 11:11:00,89.6,73.9,30.07,SW,233,1.0,4.0,60,0.00,,,0.00,Wunderground v.1.15,2013-06-17 15:11:00,
2013-06-17 11:16:00,89.4,74.7,30.07,SW,222,1.0,4.0,62,0.00,,,0.00,Wunderground v.1.15,2013-06-17 15:16:00,
2013-06-17 11:22:00,89.6,75.3,30.07,WNW,290,1.0,1.0,63,0.00,,,0.00,Wunderground v.1.15,2013-06-17 15:22:00,
2013-06-17 11:27:00,89.8,75.0,30.07,SE,129,1.0,1.0,62,0.00,,,0.00,Wunderground v.1.15,2013-06-17 15:27:00,
2013-06-17 11:32:00,90.2,76.4,30.07,WSW,237,1.0,2.0,64,0.00,,,0.00,Wunderground v.1.15,2013-06-17 15:32:00,
2013-06-17 11:38:00,90.0,75.7,30.07,WSW,238,1.0,2.0,63,0.00,,,0.00,Wunderground v.1.15,2013-06-17 15:38:00,
2013-06-17 11:43:00,89.8,75.0,30.07,South,190,0.0,2.0,62,0.00,,,0.00,Wunderground v.1.15,2013-06-17 15:43:00,
2013-06-17 11:48:00,89.8,75.5,30.07,SSW,208,1.0,2.0,63,0.00,,,0.00,Wunderground v.1.15,2013-06-17 15:48:00,
2013-06-17 11:53:00,90.0,75.2,30.07,SE,143,1.0,4.0,62,0.00,,,0.00,Wunderground v.1.15,2013-06-17 15:53:00,
2013-06-17 11:58:00,89.8,75.0,30.07,SE,129,1.0,4.0,62,0.00,,,0.00,Wunderground v.1.15,2013-06-17 15:58:00,
2013-06-17 12:04:00,90.0,75.2,30.07,SW,235,2.0,6.0,62,0.00,,,0.00,Wunderground v.1.15,2013-06-17 16:04:00,
2013-06-17 12:09:00,89.7,75.9,30.07,SSW,192,2.0,6.0,64,0.00,,,0.00,Wunderground v.1.15,2013-06-17 16:09:00,
2013-06-17 12:14:00,89.6,75.3,30.07,SSE,159,1.0,2.0,63,0.00,,,0.00,Wunderground v.1.15,2013-06-17 16:14:00,
2013-06-17 12:20:00,89.1,75.3,30.07,SW,216,1.0,1.0,64,0.00,,,0.00,Wunderground v.1.15,2013-06-17 16:20:00,
2013-06-17 12:25:00,89.0,76.2,30.07,SSE,160,0.0,1.0,66,0.00,,,0.00,Wunderground v.1.15,2013-06-17 16:25:00,
2013-06-17 12:30:00,88.7,75.9,30.07,NNW,347,1.0,1.0,66,0.00,,,0.00,Wunderground v.1.15,2013-06-17 16:30:00,
2013-06-17 12:35:00,89.3,76.0,30.07,South,188,1.0,2.0,65,0.00,,,0.00,Wunderground v.1.15,2013-06-17 16:35:00,
2013-06-17 12:41:00,89.8,76.0,30.07,SSW,201,1.0,2.0,64,0.00,,,0.00,Wunderground v.1.15,2013-06-17 16:41:00,
2013-06-17 12:46:00,90.2,75.9,30.07,ENE,77,1.0,2.0,63,0.00,,,0.00,Wunderground v.1.15,2013-06-17 16:46:00,
2013-06-17 12:51:00,90.6,74.8,30.07,South,177,1.0,2.0,60,0.00,,,0.00,Wunderground v.1.15,2013-06-17 16:51:00,
2013-06-17 12:56:00,91.2,75.4,30.07,NNW,348,1.0,2.0,60,0.00,,,0.00,Wunderground v.1.15,2013-06-17 16:56:00,
2013-06-17 13:02:00,91.4,75.6,30.07,WSW,240,1.0,1.0,60,0.00,,,0.00,Wunderground v.1.15,2013-06-17 17:02:00,
2013-06-17 13:07:00,91.4,75.1,30.07,WSW,243,1.0,2.0,59,0.00,,,0.00,Wunderground v.1.15,2013-06-17 17:07:00,
2013-06-17 13:12:00,91.9,75.0,30.07,WSW,243,1.0,1.0,58,0.00,,,0.00,Wunderground v.1.15,2013-06-17 17:12:00,
2013-06-17 13:17:00,92.7,76.3,30.07,NNE,20,1.0,2.0,59,0.00,,,0.00,Wunderground v.1.15,2013-06-17 17:17:00,
2013-06-17 13:22:00,92.4,73.9,30.07,SSE,166,2.0,4.0,55,0.00,,,0.00,Wunderground v.1.15,2013-06-17 17:22:00,
2013-06-17 13:27:00,92.1,74.7,30.07,SSW,212,2.0,4.0,57,0.00,,,0.00,Wunderground v.1.15,2013-06-17 17:27:00,
2013-06-17 13:32:00,92.2,74.8,30.06,West,277,1.0,2.0,57,0.00,,,0.00,Wunderground v.1.15,2013-06-17 17:32:00,
2013-06-17 13:37:00,92.4,73.9,30.06,SSW,210,2.0,4.0,55,0.00,,,0.00,Wunderground v.1.15,2013-06-17 17:37:00,
2013-06-17 13:42:00,92.3,73.8,30.06,SSE,165,2.0,2.0,55,0.00,,,0.00,Wunderground v.1.15,2013-06-17 17:42:00,
2013-06-17 13:47:00,92.5,73.4,30.06,WSW,238,2.0,3.0,54,0.00,,,0.00,Wunderground v.1.15,2013-06-17 17:47:00,
2013-06-17 13:52:00,92.5,73.4,30.06,SW,235,1.0,1.0,54,0.00,,,0.00,Wunderground v.1.15,2013-06-17 17:52:00,
2013-06-17 13:58:00,92.6,73.5,30.06,SSW,203,1.0,3.0,54,0.00,,,0.00,Wunderground v.1.15,2013-06-17 17:58:00,
2013-06-17 14:04:00,92.8,72.6,30.06,WSW,253,1.0,2.0,52,0.00,,,0.00,Wunderground v.1.15,2013-06-17 18:04:00,
2013-06-17 14:09:00,92.6,74.6,30.05,NE,56,1.0,2.0,56,0.00,,,0.00,Wunderground v.1.15,2013-06-17 18:09:00,
2013-06-17 14:14:00,92.7,73.6,30.05,WSW,239,1.0,3.0,54,0.00,,,0.00,Wunderground v.1.15,2013-06-17 18:14:00,
2013-06-17 14:19:00,92.6,72.4,30.05,West,260,2.0,3.0,52,0.00,,,0.00,Wunderground v.1.15,2013-06-17 18:19:00,
2013-06-17 14:25:00,92.0,72.4,30.05,SSW,212,2.0,3.0,53,0.00,,,0.00,Wunderground v.1.15,2013-06-17 18:25:00,
2013-06-17 14:31:00,92.4,73.3,30.05,SSW,201,2.0,2.0,54,0.00,,,0.00,Wunderground v.1.15,2013-06-17 18:31:00,
2013-06-17 14:36:00,92.4,72.2,30.05,NNE,22,1.0,3.0,52,0.00,,,0.00,Wunderground v.1.15,2013-06-17 18:36:00,
2013-06-17 14:41:00,92.6,72.4,30.05,South,188,1.0,6.0,52,0.00,,,0.00,Wunderground v.1.15,2013-06-17 18:41:00,
2013-06-17 14:46:00,92.2,72.6,30.04,SSE,158,1.0,6.0,53,0.00,,,0.00,Wunderground v.1.15,2013-06-17 18:46:00,
2013-06-17 14:51:00,92.5,74.0,30.04,East,90,1.0,2.0,55,0.00,,,0.00,Wunderground v.1.15,2013-06-17 18:51:00,
2013-06-17 14:56:00,92.9,73.2,30.04,SW,233,1.0,3.0,53,0.00,,,0.00,Wunderground v.1.15,2013-06-17 18:56:00,
2013-06-17 15:02:00,92.7,74.7,30.04,ENE,78,1.0,2.0,56,0.00,,,0.00,Wunderground v.1.15,2013-06-17 19:02:00,
2013-06-17 15:07:00,93.2,74.1,30.04,WNW,283,1.0,2.0,54,0.00,,,0.00,Wunderground v.1.15,2013-06-17 19:07:00,
2013-06-17 15:13:00,93.3,74.2,30.04,SE,134,1.0,3.0,54,0.00,,,0.00,Wunderground v.1.15,2013-06-17 19:13:00,
2013-06-17 15:18:00,93.2,74.1,30.04,SW,231,1.0,3.0,54,0.00,,,0.00,Wunderground v.1.15,2013-06-17 19:18:00,
2013-06-17 15:23:00,93.2,75.7,30.04,WSW,256,2.0,2.0,57,0.00,,,0.00,Wunderground v.1.15,2013-06-17 19:23:00,
2013-06-17 15:28:00,93.3,75.3,30.04,East,99,1.0,2.0,56,0.00,,,0.00,Wunderground v.1.15,2013-06-17 19:28:00,
2013-06-17 15:34:00,93.4,75.4,30.04,South,188,1.0,3.0,56,0.00,,,0.00,Wunderground v.1.15,2013-06-17 19:34:00,
2013-06-17 15:39:00,92.6,74.6,30.04,WSW,243,2.0,3.0,56,0.00,,,0.00,Wunderground v.1.15,2013-06-17 19:39:00,
2013-06-17 15:44:00,92.3,74.3,30.04,WSW,243,2.0,2.0,56,0.00,,,0.00,Wunderground v.1.15,2013-06-17 19:44:00,
2013-06-17 15:49:00,92.4,75.0,30.04,SSW,210,1.0,5.0,57,0.00,,,0.00,Wunderground v.1.15,2013-06-17 19:49:00,
2013-06-17 15:55:00,92.6,75.1,30.03,SSE,165,1.0,1.0,57,0.00,,,0.00,Wunderground v.1.15,2013-06-17 19:55:00,
2013-06-17 16:00:00,92.7,74.7,30.03,East,85,1.0,2.0,56,0.00,,,0.00,Wunderground v.1.15,2013-06-17 20:00:00,
2013-06-17 16:06:00,92.3,74.9,30.03,SW,215,1.0,2.0,57,0.00,,,0.00,Wunderground v.1.15,2013-06-17 20:06:00,
2013-06-17 16:11:00,92.2,74.2,30.03,ESE,120,1.0,1.0,56,0.00,,,0.00,Wunderground v.1.15,2013-06-17 20:11:00,
2013-06-17 16:16:00,92.0,74.6,30.03,SW,218,1.0,2.0,57,0.00,,,0.00,Wunderground v.1.15,2013-06-17 20:16:00,
2013-06-17 16:22:00,91.8,74.4,30.03,West,273,1.0,2.0,57,0.00,,,0.00,Wunderground v.1.15,2013-06-17 20:22:00,
2013-06-17 16:28:00,91.8,74.4,30.03,WSW,252,1.0,2.0,57,0.00,,,0.00,Wunderground v.1.15,2013-06-17 20:28:00,
2013-06-17 16:33:00,91.8,74.9,30.02,East,94,2.0,4.0,58,0.00,,,0.00,Wunderground v.1.15,2013-06-17 20:33:00,
2013-06-17 16:38:00,91.8,73.9,30.02,WSW,243,2.0,4.0,56,0.00,,,0.00,Wunderground v.1.15,2013-06-17 20:38:00,
2013-06-17 16:43:00,91.6,73.7,30.02,WSW,239,2.0,2.0,56,0.00,,,0.00,Wunderground v.1.15,2013-06-17 20:43:00,
2013-06-17 16:48:00,91.5,74.1,30.02,SSW,212,2.0,2.0,57,0.00,,,0.00,Wunderground v.1.15,2013-06-17 20:48:00,
2013-06-17 16:53:00,91.1,73.7,30.01,WSW,253,2.0,5.0,57,0.00,,,0.00,Wunderground v.1.15,2013-06-17 20:53:00,
2013-06-17 16:59:00,90.6,73.3,30.01,West,263,2.0,5.0,57,0.00,,,0.00,Wunderground v.1.15,2013-06-17 20:59:00,
2013-06-17 17:05:00,90.3,73.5,30.01,South,181,2.0,3.0,58,0.00,,,0.00,Wunderground v.1.15,2013-06-17 21:05:00,
2013-06-17 17:10:00,90.1,74.3,30.01,West,271,2.0,2.0,60,0.00,,,0.00,Wunderground v.1.15,2013-06-17 21:10:00,
2013-06-17 17:15:00,90.1,73.8,30.01,SW,236,1.0,4.0,59,0.00,,,0.00,Wunderground v.1.15,2013-06-17 21:15:00,
2013-06-17 17:20:00,90.0,74.2,30.01,SSW,193,1.0,2.0,60,0.00,,,0.00,Wunderground v.1.15,2013-06-17 21:20:00,
2013-06-17 17:25:00,89.8,74.1,30.01,SW,225,1.0,2.0,60,0.00,,,0.00,Wunderground v.1.15,2013-06-17 21:25:00,
2013-06-17 17:30:00,89.4,73.2,30.01,SW,231,2.0,2.0,59,0.00,,,0.00,Wunderground v.1.15,2013-06-17 21:30:00,
2013-06-17 17:35:00,88.9,73.2,30.01,West,270,2.0,4.0,60,0.00,,,0.00,Wunderground v.1.15,2013-06-17 21:35:00,
2013-06-17 17:40:00,88.9,73.7,30.01,WNW,286,2.0,2.0,61,0.00,,,0.00,Wunderground v.1.15,2013-06-17 21:40:00,
2013-06-17 17:46:00,88.9,73.7,30.01,WSW,240,1.0,2.0,61,0.00,,,0.00,Wunderground v.1.15,2013-06-17 21:46:00,
2013-06-17 17:51:00,88.8,73.1,30.01,West,270,1.0,1.0,60,0.00,,,0.00,Wunderground v.1.15,2013-06-17 21:51:00,
2013-06-17 17:57:00,88.8,73.6,30.00,SE,141,1.0,3.0,61,0.00,,,0.00,Wunderground v.1.15,2013-06-17 21:57:00,
2013-06-17 18:03:00,88.8,73.6,30.01,West,264,1.0,3.0,61,0.00,,,0.00,Wunderground v.1.15,2013-06-17 22:03:00,
2013-06-17 18:08:00,88.7,73.5,30.00,SSE,160,1.0,3.0,61,0.00,,,0.00,Wunderground v.1.15,2013-06-17 22:08:00,
2013-06-17 18:13:00,88.6,73.9,30.00,SE,129,1.0,2.0,62,0.00,,,0.00,Wunderground v.1.15,2013-06-17 22:13:00,
2013-06-17 18:18:00,88.5,73.3,30.01,SW,235,1.0,2.0,61,0.00,,,0.00,Wunderground v.1.15,2013-06-17 22:18:00,
2013-06-17 18:23:00,88.3,73.1,30.01,NW,304,1.0,1.0,61,0.00,,,0.00,Wunderground v.1.15,2013-06-17 22:23:00,
2013-06-17 18:28:00,88.2,73.5,30.01,SE,138,1.0,2.0,62,0.00,,,0.00,Wunderground v.1.15,2013-06-17 22:28:00,
2013-06-17 18:33:00,88.1,73.0,30.01,SSE,149,1.0,1.0,61,0.00,,,0.00,Wunderground v.1.15,2013-06-17 22:33:00,
2013-06-17 18:39:00,87.9,73.7,30.01,West,280,0.0,1.0,63,0.00,,,0.00,Wunderground v.1.15,2013-06-17 22:39:00,
2013-06-17 18:45:00,87.7,73.5,30.01,SE,141,0.0,2.0,63,0.00,,,0.00,Wunderground v.1.15,2013-06-17 22:45:00,
2013-06-17 18:50:00,87.6,73.4,30.01,ESE,117,1.0,2.0,63,0.00,,,0.00,Wunderground v.1.15,2013-06-17 22:50:00,
2013-06-17 18:55:00,87.5,73.3,30.01,SW,225,1.0,2.0,63,0.00,,,0.00,Wunderground v.1.15,2013-06-17 22:55:00,
2013-06-17 19:00:00,87.2,73.5,30.01,SSW,212,1.0,1.0,64,0.00,,,0.00,Wunderground v.1.15,2013-06-17 23:00:00,
2013-06-17 19:06:00,87.1,73.4,30.01,SSW,201,1.0,1.0,64,0.00,,,0.00,Wunderground v.1.15,2013-06-17 23:06:00,
2013-06-17 19:12:00,86.9,74.2,30.02,ESE,122,1.0,1.0,66,0.00,,,0.00,Wunderground v.1.15,2013-06-17 23:12:00,
2013-06-17 19:17:00,86.8,74.1,30.02,SE,133,1.0,1.0,66,0.00,,,0.00,Wunderground v.1.15,2013-06-17 23:17:00,
2013-06-17 19:22:00,86.6,73.9,30.02,SSE,165,1.0,2.0,66,0.00,,,0.00,Wunderground v.1.15,2013-06-17 23:22:00,
2013-06-17 19:27:00,86.3,74.5,30.02,South,188,1.0,2.0,68,0.00,,,0.00,Wunderground v.1.15,2013-06-17 23:27:00,
2013-06-17 19:33:00,86.0,74.2,30.02,NE,49,1.0,4.0,68,0.00,,,0.00,Wunderground v.1.15,2013-06-17 23:33:00,
2013-06-17 19:38:00,85.8,74.4,30.02,NW,321,1.0,4.0,69,0.00,,,0.00,Wunderground v.1.15,2013-06-17 23:38:00,
2013-06-17 19:43:00,85.7,74.8,30.02,ESE,122,0.0,1.0,70,0.00,,,0.00,Wunderground v.1.15,2013-06-17 23:43:00,
2013-06-17 19:48:00,85.5,74.6,30.02,ESE,113,0.0,2.0,70,0.00,,,0.00,Wunderground v.1.15,2013-06-17 23:48:00,
2013-06-17 19:54:00,85.4,74.5,30.03,ESE,110,0.0,0.0,70,0.00,,,0.00,Wunderground v.1.15,2013-06-17 23:54:00,
2013-06-17 19:59:00,85.2,74.3,30.03,WNW,298,0.0,1.0,70,0.00,,,0.00,Wunderground v.1.15,2013-06-17 23:59:00,
2013-06-17 20:04:00,85.1,74.6,30.02,NNW,342,0.0,0.0,71,0.00,,,0.00,Wunderground v.1.15,2013-06-18 00:04:00,
2013-06-17 20:09:00,84.8,74.3,30.03,WNW,297,0.0,1.0,71,0.00,,,0.00,Wunderground v.1.15,2013-06-18 00:09:00,
2013-06-17 20:15:00,84.7,74.7,30.03,ESE,108,0.0,1.0,72,0.00,,,0.00,Wunderground v.1.15,2013-06-18 00:15:00,
2013-06-17 20:20:00,84.5,74.5,30.02,ESE,114,0.0,0.0,72,0.00,,,0.00,Wunderground v.1.15,2013-06-18 00:20:00,
2013-06-17 20:25:00,84.4,74.8,30.02,NNE,20,0.0,0.0,73,0.00,,,0.00,Wunderground v.1.15,2013-06-18 00:25:00,
2013-06-17 20:30:00,84.3,75.1,30.03,ESE,113,0.0,0.0,74,0.00,,,0.00,Wunderground v.1.15,2013-06-18 00:30:00,
2013-06-17 20:35:00,84.1,75.3,30.03,ESE,119,0.0,1.0,75,0.00,,,0.00,Wunderground v.1.15,2013-06-18 00:35:00,
2013-06-17 20:40:00,84.0,75.2,30.03,SE,126,0.0,0.0,75,0.00,,,0.00,Wunderground v.1.15,2013-06-18 00:40:00,
2013-06-17 20:46:00,83.8,75.0,30.04,ESE,121,0.0,1.0,75,0.00,,,0.00,Wunderground v.1.15,2013-06-18 00:46:00,
2013-06-17 20:51:00,83.6,75.2,30.04,North,11,0.0,0.0,76,0.00,,,0.00,Wunderground v.1.15,2013-06-18 00:51:00,
2013-06-17 20:56:00,83.6,75.2,30.04,WNW,291,0.0,0.0,76,0.00,,,0.00,Wunderground v.1.15,2013-06-18 00:56:00,
2013-06-17 21:02:00,83.4,75.0,30.05,WNW,284,0.0,2.0,76,0.00,,,0.00,Wunderground v.1.15,2013-06-18 01:02:00,
2013-06-17 21:07:00,83.3,75.3,30.04,SSE,149,0.0,2.0,77,0.00,,,0.00,Wunderground v.1.15,2013-06-18 01:07:00,
2013-06-17 21:12:00,83.2,75.2,30.04,NNW,336,0.0,2.0,77,0.00,,,0.00,Wunderground v.1.15,2013-06-18 01:12:00,
2013-06-17 21:17:00,83.2,75.2,30.04,NW,318,0.0,4.0,77,0.00,,,0.00,Wunderground v.1.15,2013-06-18 01:17:00,
2013-06-17 21:22:00,83.1,75.1,30.04,NW,312,0.0,1.0,77,0.00,,,0.00,Wunderground v.1.15,2013-06-18 01:22:00,
2013-06-17 21:28:00,83.0,75.0,30.04,NNW,348,0.0,1.0,77,0.00,,,0.00,Wunderground v.1.15,2013-06-18 01:28:00,
2013-06-17 21:34:00,82.9,75.3,30.04,NNW,342,0.0,2.0,78,0.00,,,0.00,Wunderground v.1.15,2013-06-18 01:34:00,
2013-06-17 21:39:00,82.9,75.3,30.04,NNW,347,0.0,2.0,78,0.00,,,0.00,Wunderground v.1.15,2013-06-18 01:39:00,
2013-06-17 21:44:00,82.8,75.2,30.04,North,8,0.0,1.0,78,0.00,,,0.00,Wunderground v.1.15,2013-06-18 01:44:00,
2013-06-17 21:49:00,82.7,75.1,30.04,East,91,0.0,1.0,78,0.00,,,0.00,Wunderground v.1.15,2013-06-18 01:49:00,
2013-06-17 21:54:00,82.7,75.1,30.04,NNE,16,1.0,2.0,78,0.00,,,0.00,Wunderground v.1.15,2013-06-18 01:54:00,
2013-06-17 22:00:00,82.6,75.4,30.04,WNW,297,1.0,1.0,79,0.00,,,0.00,Wunderground v.1.15,2013-06-18 02:00:00,
2013-06-17 22:06:00,82.5,75.3,30.05,South,176,0.0,1.0,79,0.00,,,0.00,Wunderground v.1.15,2013-06-18 02:06:00,
2013-06-17 22:11:00,82.4,75.2,30.05,NNW,337,0.0,0.0,79,0.00,,,0.00,Wunderground v.1.15,2013-06-18 02:11:00,
2013-06-17 22:16:00,82.3,75.1,30.06,North,4,0.0,1.0,79,0.00,,,0.00,Wunderground v.1.15,2013-06-18 02:16:00,
2013-06-17 22:21:00,82.3,75.1,30.06,North,352,0.0,0.0,79,0.00,,,0.00,Wunderground v.1.15,2013-06-18 02:21:00,
2013-06-17 22:26:00,82.3,75.1,30.06,North,351,0.0,1.0,79,0.00,,,0.00,Wunderground v.1.15,2013-06-18 02:26:00,
2013-06-17 22:31:00,82.1,74.9,30.07,North,350,0.0,0.0,79,0.00,,,0.00,Wunderground v.1.15,2013-06-18 02:31:00,
2013-06-17 22:36:00,82.0,75.2,30.07,North,352,0.0,0.0,80,0.00,,,0.00,Wunderground v.1.15,2013-06-18 02:36:00,
2013-06-17 22:41:00,81.9,75.1,30.07,North,351,0.0,0.0,80,0.00,,,0.00,Wunderground v.1.15,2013-06-18 02:41:00,
2013-06-17 22:47:00,81.7,74.9,30.07,North,352,0.0,0.0,80,0.00,,,0.00,Wunderground v.1.15,2013-06-18 02:47:00,
2013-06-17 22:52:00,81.5,75.1,30.07,North,352,0.0,0.0,81,0.00,,,0.00,Wunderground v.1.15,2013-06-18 02:52:00,
2013-06-17 22:57:00,81.4,75.0,30.06,North,352,0.0,0.0,81,0.00,,,0.00,Wunderground v.1.15,2013-06-18 02:57:00,
2013-06-17 23:02:00,81.3,74.9,30.07,North,352,0.0,0.0,81,0.00,,,0.00,Wunderground v.1.15,2013-06-18 03:02:00,
2013-06-17 23:07:00,81.1,74.7,30.07,North,352,0.0,0.0,81,0.00,,,0.00,Wunderground v.1.15,2013-06-18 03:07:00,
2013-06-17 23:13:00,81.1,75.1,30.07,North,351,0.0,0.0,82,0.00,,,0.00,Wunderground v.1.15,2013-06-18 03:13:00,
2013-06-17 23:18:00,81.0,75.0,30.07,North,351,0.0,0.0,82,0.00,,,0.00,Wunderground v.1.15,2013-06-18 03:18:00,
2013-06-17 23:23:00,80.9,74.9,30.07,North,352,0.0,0.0,82,0.00,,,0.00,Wunderground v.1.15,2013-06-18 03:23:00,
2013-06-17 23:28:00,80.9,74.9,30.07,North,351,0.0,0.0,82,0.00,,,0.00,Wunderground v.1.15,2013-06-18 03:28:00,
2013-06-17 23:33:00,80.8,74.8,30.07,NNW,340,0.0,0.0,82,0.00,,,0.00,Wunderground v.1.15,2013-06-18 03:33:00,
2013-06-17 23:38:00,80.7,75.1,30.07,NNW,340,0.0,0.0,83,0.00,,,0.00,Wunderground v.1.15,2013-06-18 03:38:00,
2013-06-17 23:44:00,80.5,74.9,30.07,NNW,340,0.0,0.0,83,0.00,,,0.00,Wunderground v.1.15,2013-06-18 03:44:00,
2013-06-17 23:50:00,80.4,75.1,30.07,NNW,340,0.0,0.0,84,0.00,,,0.00,Wunderground v.1.15,2013-06-18 03:50:00,
2013-06-17 23:55:00,80.2,74.9,30.07,NNW,340,0.0,0.0,84,0.00,,,0.00,Wunderground v.1.15,2013-06-18 03:55:00,